Find Starlink 34517

NORAD ID: 64595 Int'l Des: 2025-137 Owner: SPXS Country: US Constellation: starlink operational
LEOCIRCULAR

当前视图

正在加载3D地球...

About Starlink 34517

Starlink 34517 (NORAD 64595) is a starlink constellation satellite (v2 mini) launched Jun 25, 2025 by SPXS of US. It operates in LEO, CIRCULAR orbit with a mass of 575.00 kg.

关于 Starlink 34517

正在加载描述...

即将过境

Passes for default location (London). Set your location on the main map for personalized predictions.

高度历史

Loading altitude history...

两行轨道根数

1 64595U 25137B 26167.49196762 .00018640 00000-0 56143-3 0 9994
2 64595 53.1584 236.1941 0001130 85.5452 274.5680 15.34400054 55869
Epoch: Jun 16, 2026 • Age: 6 hours

当前状态

高度 468.8 km
速度 7.63 km/s
星下点 -20.90°S, 44.27°E
发射日期 Jun 25, 2025
运行时间 0.9 years
类型 internet

技术详情

分类 Payload
质量 575.00 kg
干质量 530.00 kg
总质量 575.00 kg
长度 0.30 m
直径 4.10 m
跨度 29.00 m
形状 Box + pan
制造商 SPXS
平台类型 Starlink V2MO
阶段状态 In Orbit
所有者/国家 SPXS/US

Most Searched